Location: Chuathbaluk
(61.5726°N, 159.2454°W)
Time: 12:25:20
(UTC+00:00)

ISS - Visible Passes

Search period start: 28 October 2020 00:00
Search period end: 07 November 2020 00:00
Orbit: 417 x 420 km, 51.6° (Epoch: 28 October)

Date Brightness Start Highest point End Pass type
(mag) Time Alt. Az. Time Alt. Az. Time Alt. Az.
28 Oct -1.1 16:34:29 10° SSW 16:36:28 15° S 16:38:27 10° SE visible
29 Oct -1.1 15:47:10 10° SSW 15:48:56 14° SSE 15:50:42 10° SE visible
30 Oct -1.1 15:01:20 12° SSE 15:01:25 12° SSE 15:02:47 10° SE visible
30 Oct -1.3 16:35:09 10° SW 16:37:16 16° S 16:39:22 10° SE visible
31 Oct -1.5 15:48:30 13° SSW 15:49:42 16° S 15:51:48 10° SE visible
01 Nov -1.3 15:02:41 14° SSE 15:02:41 14° SSE 15:04:08 10° SE visible
01 Nov -1.3 16:36:09 10° SW 16:38:02 14° S 16:39:55 10° SSE visible
02 Nov -1.6 15:49:49 15° SSW 15:50:29 15° S 15:52:32 10° SSE visible
03 Nov -1.2 15:03:59 14° SSE 15:03:59 14° SSE 15:05:02 10° SE visible
03 Nov -1.2 16:37:42 10° SW 16:38:44 11° SSW 16:39:47 10° S visible
04 Nov -1.4 15:51:08 13° SSW 15:51:13 13° SSW 15:52:49 10° SSE visible
05 Nov -0.9 15:05:20 11° SSE 15:05:20 11° SSE 15:05:34 10° SSE visible
